Time,TemperatureF,DewpointF,PressureIn,WindDirection,WindDirectionDegrees,WindSpeedMPH,WindSpeedGustMPH,Humidity,HourlyPrecipIn,Conditions,Clouds,dailyrainin,SoftwareType,DateUTC
2013-06-09 00:03:00,66.0,64.0,30.15,South,175,0.0,0.0,92,0.01,,,-99.99,,2013-06-09 04:03:00,
2013-06-09 00:12:00,66.0,64.0,30.15,South,175,0.0,0.0,92,0.01,,,-99.99,,2013-06-09 04:12:00,
2013-06-09 00:23:00,66.0,64.0,30.15,South,175,0.0,0.0,92,0.01,,,-99.99,,2013-06-09 04:23:00,
2013-06-09 00:33:00,66.0,64.0,30.15,South,175,0.0,1.0,93,0.00,,,0.00,,2013-06-09 04:33:00,
2013-06-09 00:43:00,66.0,64.0,30.15,South,175,0.0,1.0,93,0.00,,,0.00,,2013-06-09 04:43:00,
2013-06-09 00:53:00,66.0,64.0,30.15,South,176,0.0,2.0,94,0.00,,,0.00,,2013-06-09 04:53:00,
2013-06-09 01:02:00,66.0,64.0,30.15,South,176,0.0,1.0,94,0.00,,,0.00,,2013-06-09 05:02:00,
2013-06-09 01:12:00,66.0,64.0,30.15,South,176,0.0,1.0,94,0.00,,,0.00,,2013-06-09 05:12:00,
2013-06-09 01:22:00,66.0,64.0,30.15,South,176,0.0,0.0,94,0.00,,,0.00,,2013-06-09 05:22:00,
2013-06-09 01:32:00,65.0,64.0,30.15,South,176,0.0,0.0,95,0.00,,,0.00,,2013-06-09 05:32:00,
2013-06-09 01:42:00,65.0,64.0,30.15,South,176,0.0,0.0,95,0.00,,,0.00,,2013-06-09 05:42:00,
2013-06-09 01:52:00,65.0,64.0,30.14,South,176,0.0,2.0,95,0.00,,,0.00,,2013-06-09 05:52:00,
2013-06-09 02:02:00,65.0,64.0,30.14,South,176,0.0,0.0,95,0.00,,,0.00,,2013-06-09 06:02:00,
2013-06-09 02:12:00,65.0,64.0,30.14,South,176,0.0,0.0,95,0.00,,,0.00,,2013-06-09 06:12:00,
2013-06-09 02:22:00,65.0,64.0,30.14,South,176,0.0,0.0,95,0.00,,,0.00,,2013-06-09 06:22:00,
2013-06-09 02:32:00,65.0,64.0,30.14,South,176,0.0,0.0,95,0.00,,,0.00,,2013-06-09 06:32:00,
2013-06-09 02:42:00,65.0,64.0,30.14,South,176,0.0,0.0,95,0.00,,,0.00,,2013-06-09 06:42:00,
2013-06-09 02:52:00,65.0,64.0,30.15,South,176,0.0,0.0,95,0.00,,,0.00,,2013-06-09 06:52:00,
2013-06-09 03:02:00,65.0,64.0,30.14,South,176,0.0,3.0,95,0.00,,,0.00,,2013-06-09 07:02:00,
2013-06-09 03:12:00,65.0,64.0,30.14,South,176,0.0,3.0,95,0.00,,,0.00,,2013-06-09 07:12:00,
2013-06-09 03:22:00,64.0,63.0,30.14,South,176,0.0,0.0,95,0.00,,,0.00,,2013-06-09 07:22:00,
2013-06-09 03:32:00,64.0,62.0,30.14,South,176,0.0,0.0,94,0.00,,,0.00,,2013-06-09 07:32:00,
2013-06-09 03:42:00,64.0,62.0,30.14,South,176,0.0,0.0,94,0.00,,,0.00,,2013-06-09 07:42:00,
2013-06-09 03:52:00,64.0,62.0,30.14,South,176,0.0,0.0,94,0.00,,,0.00,,2013-06-09 07:52:00,
2013-06-09 04:02:00,63.0,61.0,30.14,South,176,0.0,0.0,94,0.00,,,0.00,,2013-06-09 08:02:00,
2013-06-09 04:12:00,63.0,61.0,30.14,South,176,0.0,0.0,94,0.00,,,0.00,,2013-06-09 08:12:00,
2013-06-09 04:22:00,63.0,62.0,30.15,South,176,0.0,0.0,95,0.00,,,0.00,,2013-06-09 08:22:00,
2013-06-09 04:32:00,63.0,62.0,30.15,South,176,0.0,0.0,95,0.00,,,0.00,,2013-06-09 08:32:00,
2013-06-09 04:42:00,63.0,62.0,30.15,South,176,0.0,0.0,95,0.00,,,0.00,,2013-06-09 08:42:00,
2013-06-09 04:53:00,62.0,61.0,30.15,South,176,0.0,0.0,95,0.00,,,0.00,,2013-06-09 08:53:00,
2013-06-09 05:02:00,62.0,61.0,30.15,South,176,0.0,0.0,95,0.00,,,0.00,,2013-06-09 09:02:00,
2013-06-09 05:12:00,62.0,61.0,30.15,South,176,0.0,0.0,95,0.00,,,0.00,,2013-06-09 09:12:00,
2013-06-09 05:22:00,62.0,61.0,30.16,South,176,0.0,0.0,95,0.00,,,0.00,,2013-06-09 09:22:00,
2013-06-09 05:33:00,62.0,61.0,30.16,South,176,0.0,0.0,95,0.00,,,0.00,,2013-06-09 09:33:00,
2013-06-09 05:43:00,62.0,61.0,30.16,South,176,0.0,0.0,95,0.00,,,0.00,,2013-06-09 09:43:00,
2013-06-09 05:52:00,62.0,61.0,30.16,South,176,0.0,0.0,95,0.00,,,0.00,,2013-06-09 09:52:00,
2013-06-09 06:03:00,61.0,60.0,30.16,South,176,0.0,0.0,95,0.00,,,0.00,,2013-06-09 10:03:00,
2013-06-09 06:12:00,61.0,60.0,30.16,South,176,0.0,0.0,95,0.00,,,0.00,,2013-06-09 10:12:00,
2013-06-09 06:23:00,61.0,60.0,30.16,South,176,0.0,0.0,95,0.00,,,0.00,,2013-06-09 10:23:00,
2013-06-09 06:32:00,61.0,59.0,30.17,South,176,0.0,0.0,94,0.00,,,0.00,,2013-06-09 10:32:00,
2013-06-09 06:43:00,61.0,59.0,30.17,South,176,0.0,0.0,94,0.00,,,0.00,,2013-06-09 10:43:00,
2013-06-09 06:52:00,61.0,60.0,30.17,South,176,0.0,0.0,95,0.00,,,0.00,,2013-06-09 10:52:00,
2013-06-09 07:02:00,60.0,58.0,30.18,South,176,0.0,0.0,94,0.00,,,0.00,,2013-06-09 11:02:00,
2013-06-09 07:12:00,60.0,58.0,30.18,South,176,0.0,0.0,94,0.00,,,0.00,,2013-06-09 11:12:00,
2013-06-09 07:22:00,60.0,58.0,30.18,South,176,0.0,0.0,94,0.00,,,0.00,,2013-06-09 11:22:00,
2013-06-09 07:32:00,60.0,59.0,30.18,South,176,0.0,0.0,95,0.00,,,0.00,,2013-06-09 11:32:00,
2013-06-09 07:42:00,60.0,59.0,30.18,South,176,0.0,0.0,95,0.00,,,0.00,,2013-06-09 11:42:00,
2013-06-09 07:52:00,60.0,59.0,30.18,South,176,0.0,0.0,95,0.00,,,0.00,,2013-06-09 11:52:00,
2013-06-09 08:02:00,61.0,60.0,30.18,South,176,0.0,0.0,96,0.00,,,0.00,,2013-06-09 12:02:00,
2013-06-09 08:12:00,61.0,60.0,30.18,South,176,0.0,0.0,96,0.00,,,0.00,,2013-06-09 12:12:00,
2013-06-09 08:22:00,61.0,60.0,30.19,South,176,0.0,0.0,96,0.00,,,0.00,,2013-06-09 12:22:00,
2013-06-09 08:32:00,62.0,61.0,30.19,South,176,0.0,0.0,97,0.00,,,0.00,,2013-06-09 12:32:00,
2013-06-09 08:42:00,62.0,61.0,30.19,South,176,0.0,0.0,97,0.00,,,0.00,,2013-06-09 12:42:00,
2013-06-09 08:52:00,63.0,62.0,30.19,South,176,0.0,1.0,98,0.00,,,0.00,,2013-06-09 12:52:00,
2013-06-09 09:02:00,64.0,63.0,30.19,South,176,0.0,0.0,97,0.00,,,0.00,,2013-06-09 13:02:00,
2013-06-09 09:12:00,64.0,63.0,30.19,South,176,0.0,0.0,97,0.00,,,0.00,,2013-06-09 13:12:00,
2013-06-09 09:22:00,64.0,63.0,30.19,South,176,0.0,0.0,98,0.00,,,0.00,,2013-06-09 13:22:00,
2013-06-09 09:32:00,65.0,64.0,30.19,South,176,0.0,0.0,97,0.00,,,0.00,,2013-06-09 13:32:00,
2013-06-09 09:42:00,65.0,64.0,30.19,South,176,0.0,0.0,97,0.00,,,0.00,,2013-06-09 13:42:00,
2013-06-09 09:52:00,65.0,64.0,30.18,South,176,0.0,0.0,97,0.00,,,0.00,,2013-06-09 13:52:00,
2013-06-09 10:02:00,67.0,66.0,30.19,South,176,0.0,0.0,97,0.00,,,0.00,,2013-06-09 14:02:00,
2013-06-09 10:12:00,67.0,66.0,30.19,South,176,0.0,0.0,97,0.00,,,0.00,,2013-06-09 14:12:00,
2013-06-09 10:22:00,67.0,65.0,30.19,South,177,0.0,3.0,94,0.00,,,0.00,,2013-06-09 14:22:00,
2013-06-09 10:32:00,68.0,65.0,30.19,South,177,0.0,0.0,89,0.00,,,0.00,,2013-06-09 14:32:00,
2013-06-09 10:42:00,68.0,65.0,30.19,South,177,0.0,0.0,89,0.00,,,0.00,,2013-06-09 14:42:00,
2013-06-09 10:52:00,69.0,65.0,30.18,South,177,0.0,1.0,88,0.00,,,0.00,,2013-06-09 14:52:00,
2013-06-09 11:02:00,70.0,65.0,30.17,South,177,0.0,1.0,85,0.00,,,0.00,,2013-06-09 15:02:00,
2013-06-09 11:12:00,70.0,65.0,30.17,South,177,0.0,1.0,85,0.00,,,0.00,,2013-06-09 15:12:00,
2013-06-09 11:22:00,70.0,64.0,30.18,South,182,0.0,3.0,82,0.00,,,0.00,,2013-06-09 15:22:00,
2013-06-09 11:33:00,72.0,64.0,30.18,SSW,196,0.0,1.0,77,0.00,,,0.00,,2013-06-09 15:33:00,
2013-06-09 11:43:00,72.0,64.0,30.18,SSW,196,0.0,1.0,77,0.00,,,0.00,,2013-06-09 15:43:00,
2013-06-09 11:53:00,72.0,64.0,30.17,SSW,196,0.0,1.0,77,0.00,,,0.00,,2013-06-09 15:53:00,
2013-06-09 12:03:00,73.0,64.0,30.18,West,270,0.0,3.0,73,0.00,,,0.00,,2013-06-09 16:03:00,
2013-06-09 12:13:00,73.0,64.0,30.18,West,270,0.0,3.0,73,0.00,,,0.00,,2013-06-09 16:13:00,
2013-06-09 12:23:00,74.0,66.0,30.17,West,270,0.0,2.0,75,0.00,,,0.00,,2013-06-09 16:23:00,
2013-06-09 12:33:00,74.0,66.0,30.17,West,270,0.0,1.0,75,0.00,,,0.00,,2013-06-09 16:33:00,
2013-06-09 12:42:00,74.0,66.0,30.17,West,270,0.0,1.0,75,0.00,,,0.00,,2013-06-09 16:42:00,
2013-06-09 12:53:00,74.0,66.0,30.17,SSE,150,1.0,5.0,76,0.00,,,0.00,,2013-06-09 16:53:00,
2013-06-09 13:03:00,72.0,67.0,30.16,North,359,1.0,3.0,83,0.01,,,0.01,,2013-06-09 17:03:00,
2013-06-09 13:12:00,72.0,67.0,30.16,North,359,1.0,3.0,83,0.01,,,0.01,,2013-06-09 17:12:00,
2013-06-09 13:22:00,72.0,67.0,30.16,ENE,61,0.0,2.0,84,0.01,,,0.01,,2013-06-09 17:22:00,
2013-06-09 13:32:00,73.0,66.0,30.15,ENE,72,0.0,5.0,80,0.01,,,0.01,,2013-06-09 17:32:00,
2013-06-09 13:42:00,73.0,66.0,30.15,ENE,72,0.0,5.0,80,0.01,,,0.01,,2013-06-09 17:42:00,
2013-06-09 13:52:00,72.0,64.0,30.14,East,85,4.0,8.0,77,0.01,,,0.01,,2013-06-09 17:52:00,
2013-06-09 14:02:00,71.0,65.0,30.14,North,350,0.0,3.0,82,0.00,,,0.01,,2013-06-09 18:02:00,
2013-06-09 14:12:00,71.0,65.0,30.14,North,350,0.0,3.0,82,0.00,,,0.01,,2013-06-09 18:12:00,
2013-06-09 14:22:00,71.0,65.0,30.15,ENE,61,2.0,4.0,81,0.00,,,0.01,,2013-06-09 18:22:00,
2013-06-09 14:33:00,70.0,66.0,30.15,ENE,58,0.0,2.0,88,0.08,,,0.09,,2013-06-09 18:33:00,
2013-06-09 14:42:00,70.0,66.0,30.15,ENE,58,0.0,2.0,88,0.08,,,0.09,,2013-06-09 18:42:00,
2013-06-09 14:52:00,69.0,65.0,30.14,NE,53,1.0,3.0,88,0.10,,,0.11,,2013-06-09 18:52:00,
2013-06-09 15:03:00,69.0,66.0,30.12,NE,36,0.0,5.0,89,0.10,,,0.11,,2013-06-09 19:03:00,
2013-06-09 15:12:00,69.0,66.0,30.12,NE,36,0.0,5.0,89,0.10,,,0.11,,2013-06-09 19:12:00,
2013-06-09 15:22:00,70.0,67.0,30.12,North,0,1.0,3.0,89,0.10,,,0.11,,2013-06-09 19:22:00,
2013-06-09 15:32:00,71.0,68.0,30.11,North,357,0.0,4.0,89,0.02,,,0.11,,2013-06-09 19:32:00,
2013-06-09 15:42:00,71.0,68.0,30.11,North,357,0.0,4.0,89,0.02,,,0.11,,2013-06-09 19:42:00,
2013-06-09 15:52:00,71.0,66.0,30.11,ENE,70,0.0,9.0,83,0.00,,,0.11,,2013-06-09 19:52:00,
2013-06-09 16:03:00,71.0,65.0,30.12,NE,45,1.0,4.0,82,0.00,,,0.11,,2013-06-09 20:03:00,
2013-06-09 16:12:00,71.0,65.0,30.12,NE,45,1.0,4.0,82,0.00,,,0.11,,2013-06-09 20:12:00,
2013-06-09 16:22:00,70.0,66.0,30.13,NNE,18,3.0,9.0,86,0.29,,,0.40,,2013-06-09 20:22:00,
2013-06-09 16:32:00,67.0,64.0,30.13,East,81,0.0,2.0,91,0.40,,,0.51,,2013-06-09 20:32:00,
2013-06-09 16:42:00,67.0,64.0,30.13,East,81,0.0,2.0,91,0.40,,,0.51,,2013-06-09 20:42:00,
2013-06-09 16:52:00,67.0,65.0,30.14,North,354,3.0,6.0,92,0.41,,,0.52,,2013-06-09 20:52:00,
2013-06-09 17:03:00,66.0,64.0,30.14,NE,47,0.0,5.0,93,0.45,,,0.56,,2013-06-09 21:03:00,
2013-06-09 17:12:00,66.0,64.0,30.14,NNE,22,0.0,5.0,94,0.21,,,0.59,,2013-06-09 21:12:00,
2013-06-09 17:22:00,66.0,64.0,30.14,NNE,22,0.0,5.0,94,0.21,,,0.59,,2013-06-09 21:22:00,
2013-06-09 17:33:00,66.0,65.0,30.14,North,350,0.0,5.0,95,0.10,,,0.61,,2013-06-09 21:33:00,
2013-06-09 17:43:00,66.0,65.0,30.14,North,350,0.0,5.0,95,0.10,,,0.61,,2013-06-09 21:43:00,
2013-06-09 17:53:00,66.0,65.0,30.14,North,350,0.0,1.0,95,0.09,,,0.61,,2013-06-09 21:53:00,
2013-06-09 18:02:00,66.0,65.0,30.14,North,350,0.0,1.0,96,0.08,,,0.64,,2013-06-09 22:02:00,
2013-06-09 18:13:00,65.0,64.0,30.12,NE,49,1.0,3.0,96,0.07,,,0.66,,2013-06-09 22:13:00,
2013-06-09 18:23:00,65.0,64.0,30.12,NE,49,1.0,3.0,96,0.07,,,0.66,,2013-06-09 22:23:00,
2013-06-09 18:33:00,65.0,64.0,30.12,NE,49,0.0,3.0,96,0.06,,,0.66,,2013-06-09 22:33:00,
2013-06-09 18:42:00,65.0,64.0,30.12,NE,49,0.0,3.0,96,0.06,,,0.66,,2013-06-09 22:42:00,
2013-06-09 18:52:00,65.0,64.0,30.12,NE,49,0.0,3.0,96,0.06,,,0.66,,2013-06-09 22:52:00,
2013-06-09 19:02:00,66.0,65.0,30.13,NE,49,0.0,1.0,97,0.02,,,0.66,,2013-06-09 23:02:00,
2013-06-09 19:12:00,65.0,64.0,30.13,NE,49,0.0,0.0,97,0.00,,,0.66,,2013-06-09 23:12:00,
2013-06-09 19:22:00,65.0,64.0,30.13,NE,49,0.0,0.0,97,0.00,,,0.66,,2013-06-09 23:22:00,
2013-06-09 19:32:00,65.0,64.0,30.13,NE,49,0.0,0.0,97,0.00,,,0.66,,2013-06-09 23:32:00,
2013-06-09 19:43:00,65.0,64.0,30.13,NE,49,0.0,0.0,97,0.00,,,0.66,,2013-06-09 23:43:00,
2013-06-09 19:52:00,65.0,64.0,30.13,NE,49,0.0,0.0,97,0.00,,,0.66,,2013-06-09 23:52:00,
2013-06-09 20:02:00,65.0,64.0,30.12,NE,49,0.0,1.0,98,0.00,,,0.66,,2013-06-10 00:02:00,
2013-06-09 20:13:00,65.0,64.0,30.12,NE,49,0.0,1.0,98,0.00,,,0.66,,2013-06-10 00:13:00,
2013-06-09 20:22:00,65.0,64.0,30.12,NE,49,0.0,1.0,97,0.00,,,0.66,,2013-06-10 00:22:00,
2013-06-09 20:32:00,65.0,64.0,30.12,NE,49,0.0,0.0,98,0.00,,,0.66,,2013-06-10 00:32:00,
2013-06-09 20:42:00,65.0,64.0,30.12,NE,49,0.0,0.0,98,0.00,,,0.66,,2013-06-10 00:42:00,
2013-06-09 20:52:00,65.0,64.0,30.12,NE,49,0.0,0.0,98,0.02,,,0.68,,2013-06-10 00:52:00,
2013-06-09 21:03:00,65.0,64.0,30.11,NE,49,0.0,3.0,98,0.03,,,0.69,,2013-06-10 01:03:00,
2013-06-09 21:12:00,65.0,64.0,30.11,NE,49,0.0,3.0,98,0.03,,,0.69,,2013-06-10 01:12:00,
2013-06-09 21:22:00,65.0,64.0,30.11,NE,49,0.0,1.0,98,0.06,,,0.72,,2013-06-10 01:22:00,
2013-06-09 21:32:00,65.0,64.0,30.11,NE,49,0.0,0.0,98,0.13,,,0.79,,2013-06-10 01:32:00,
2013-06-09 21:43:00,65.0,64.0,30.11,NE,49,0.0,0.0,98,0.13,,,0.79,,2013-06-10 01:43:00,
2013-06-09 21:52:00,65.0,64.0,30.11,NE,49,0.0,0.0,98,0.12,,,0.80,,2013-06-10 01:52:00,
2013-06-09 22:02:00,65.0,64.0,30.11,ENE,58,0.0,0.0,98,0.11,,,0.80,,2013-06-10 02:02:00,
2013-06-09 22:12:00,65.0,64.0,30.11,ENE,58,0.0,0.0,98,0.11,,,0.80,,2013-06-10 02:12:00,
2013-06-09 22:22:00,65.0,64.0,30.11,ENE,58,0.0,2.0,98,0.11,,,0.82,,2013-06-10 02:22:00,
2013-06-09 22:32:00,65.0,64.0,30.11,ENE,58,0.0,1.0,98,0.06,,,0.85,,2013-06-10 02:32:00,
2013-06-09 22:42:00,65.0,64.0,30.11,ENE,58,0.0,1.0,98,0.06,,,0.85,,2013-06-10 02:42:00,
2013-06-09 22:52:00,65.0,64.0,30.11,North,0,0.0,4.0,98,0.05,,,0.85,,2013-06-10 02:52:00,
2013-06-09 23:02:00,65.0,64.0,30.12,North,0,0.0,1.0,98,0.05,,,0.85,,2013-06-10 03:02:00,
2013-06-09 23:12:00,65.0,64.0,30.12,North,0,0.0,1.0,98,0.05,,,0.85,,2013-06-10 03:12:00,
2013-06-09 23:22:00,65.0,65.0,30.11,North,0,0.0,1.0,99,0.03,,,0.85,,2013-06-10 03:22:00,
2013-06-09 23:33:00,65.0,64.0,30.11,North,0,0.0,0.0,98,0.08,,,0.93,,2013-06-10 03:33:00,
2013-06-09 23:43:00,65.0,64.0,30.11,North,0,0.0,0.0,98,0.08,,,0.93,,2013-06-10 03:43:00,
2013-06-09 23:53:00,65.0,64.0,30.11,North,0,0.0,0.0,98,0.17,,,1.02,,2013-06-10 03:53:00,